Flag for Germany Weather past 2 weeks in Pirmasens, Rhineland-Palatinate, Germany

Now
66 °F

Sunny.


Feels Like: 66 °F
Forecast: 49 / 67 °F
Wind: 5 mph from West

Location: Zweibrucken - Rheinland-Pfalz

Current Time: Sep 30, 2014 at 6:33:47 PM

Latest Report: Sep 30, 2014 at 5:50 PM


Visibility: 10 mi

Pressure: 30.30 "Hg

Humidity: 73%

Dew point: 57 °F

Location of PirmasensLocation

Historic Weather in Pirmasens — Graph

°F

Pirmasens temperature yesterday

Maximum temperature yesterday: 73 °F (at 2:50 PM)
Minimum temperature yesterday: 57 °F (at 12:50 AM)
Average temperature yesterday: 65 °F

Past Weeks' High & Low Weather Summary

 TemperatureHumidityPressure
High79 °F (Sep 17, 3:20 PM)100% (Sep 16, 2:50 AM)30.36 "Hg (Sep 16, 2:50 AM)
Low37 °F (Sep 23, 5:50 AM)53% (Sep 16, 5:50 PM)29.86 "Hg (Sep 17, 4:20 PM)
Average60 °F82%30.10 "Hg
* Reported Sep 15 5:20 PM — Sep 30 5:20 PM, Pirmasens, Weather by CustomWeather, © 2014

Note: Actual official high and low records may vary slightly from our data, if they occured in-between our weather recording intervals... More about our weather records

Advertising

Pirmasens weather history for previous 24 hours

 ConditionsComfort  
Time TempWeatherWind HumidityBarometerVisibility
5:20 PM
Sep 30
66 °FPartly sunny.5 mph78%30.30 "HgN/A
4:50 PM66 °FPartly sunny.6 mph78%30.30 "HgN/A
4:20 PM66 °FBroken clouds.5 mph73%30.30 "HgN/A
3:50 PM68 °FBroken clouds.2 mph69%30.30 "HgN/A
3:20 PM68 °FScattered clouds.3 mph69%30.30 "HgN/A
2:50 PM66 °FPassing clouds.5 mph73%30.30 "HgN/A
2:20 PM66 °FBroken clouds.5 mph73%30.30 "HgN/A
1:50 PM64 °FBroken clouds.5 mph83%30.30 "HgN/A
1:20 PM64 °FBroken clouds.5 mph83%30.33 "HgN/A
12:50 PM64 °FPartly sunny.6 mph83%30.33 "HgN/A
12:20 PM64 °FBroken clouds.5 mph83%30.33 "HgN/A
11:50 AM63 °FBroken clouds.3 mph88%30.30 "HgN/A
11:20 AM63 °FBroken clouds.3 mph88%30.30 "HgN/A
10:50 AM61 °FBroken clouds.5 mph94%30.30 "HgN/A
10:20 AM61 °FBroken clouds.3 mph94%30.30 "Hg4 mi
9:50 AM59 °FPartly sunny.3 mph100%30.30 "Hg6 mi
9:20 AM57 °FPassing clouds.1 mph100%30.30 "Hg4 mi
8:50 AM57 °FPassing clouds.1 mph100%30.30 "Hg4 mi
8:20 AM57 °FPassing clouds.6 mph100%30.30 "Hg6 mi
7:50 AM57 °FLight rain. Passing clouds.5 mph100%30.27 "Hg4 mi
7:20 AM57 °FLight rain. Passing clouds.5 mph94%30.27 "Hg5 mi
6:50 AM59 °FPassing clouds.6 mph88%30.27 "HgN/A
6:20 AM57 °FPassing clouds.6 mph94%30.27 "HgN/A
4:50 AM59 °FOvercast.6 mph88%30.27 "HgN/A
1:20 AM61 °FMostly cloudy.6 mph83%30.27 "HgN/A
12:50 AM61 °FOvercast.6 mph83%30.27 "HgN/A
12:20 AM63 °FMostly cloudy.7 mph77%30.27 "HgN/A
10:20 PM
Sep 29
63 °FClear.2 mph88%30.27 "Hg10 mi
9:50 PM63 °FClear.2 mph88%30.27 "Hg10 mi
9:20 PM63 °FClear.2 mph88%30.27 "Hg10 mi
8:50 PM63 °FSunny.2 mph88%30.27 "Hg10 mi
8:20 PM64 °FPartly sunny.5 mph83%30.27 "HgN/A
7:50 PM66 °FSunny.5 mph78%30.27 "Hg10 mi
7:20 PM66 °FPassing clouds.6 mph73%30.27 "HgN/A
6:50 PM66 °FSunny.7 mph78%30.27 "Hg10 mi
6:20 PM68 °FSunny.5 mph73%30.24 "Hg10 mi
Weather by CustomWeather, © 2014

See weather overviewHow to use our weather pages